Weather History for KBEH - July, 2013

Change the Weather History Date:

Monday, July 22, 2013

  Actual Average (KSBN) Record (KSBN)
Temperature  
Mean Temperature 75 °F 73 °F  
Max Temperature 84 °F 83 °F 104 °F (1934)
Min Temperature 68 °F 63 °F 46 °F (1947)
Degree Days  
Heating Degree Days 0 0  
Month to date heating degree days 0  
Since 1 June heating degree days 44  
Since 1 July heating degree days 0  
Cooling Degree Days 10 8  
Month to date cooling degree days 176  
Year to date cooling degree days 397  
Since 1 June cooling degree days 341  
Growing Degree Days 25 (Base 50)    
Moisture  
Dew Point 66 °F    
Average Humidity 74    
Maximum Humidity 93    
Minimum Humidity 56    
Precipitation  
Precipitation 0.00 in 0.14 in 1.89 in (1995)
Month to date precipitation 2.81  
Year to date precipitation 20.32  
Snow  
Snow 0.00 in 0.00 in 0.00 in (2002)
Month to date snowfall 0.0  
Since 1 June snowfall 0.0  
Since 1 July snowfall 0.0  
Snow Depth -    
Sea Level Pressure  
Sea Level Pressure 29.82 in    
Wind  
Wind Speed 8 mph (SSE)    
Max Wind Speed 15 mph    
Max Gust Speed -    
Visibility 10 miles    
Events      
T = Trace of Precipitation, MM = Missing Value Source: NWS Daily Summary

Daily Weather History Graph

Daily Weather History Graph

Search for Another Location

Airport or City:

Trip Planner

Search our weather history database for the weather conditions in past years. The results will help you decide how hot, cold, wet, or windy it might be!

Date:

Astronomy

Jul. 22, 2013 Rise Set
Actual Time 6:29 AM EDT 9:14 PM EDT
Civil Twilight 5:56 AM EDT 9:47 PM EDT
Nautical Twilight 5:15 AM EDT 10:28 PM EDT
Astronomical Twilight 4:28 AM EDT 11:14 PM EDT
Moon 8:58 PM EDT (7/22) 6:26 AM EDT (7/22)
Length of Visible Light 15h 50m
Length of Day
14h 45m
Full, 100% of the Moon is Illuminated
Jul 22
Full
Jul 22
Full
Jul 29
Last Quarter
Aug 6
New
Aug 14
First Quarter

Hourly Weather History & Observations

Time (EDT) Temp. Heat Index Dew Point Humidity Pressure Visibility Wind Dir Wind Speed Gust Speed Precip Events Conditions
12:53 AM 68.0 °F - 66.0 °F 93% 29.90 in 10.0 mi ESE 11.5 mph - N/A   Clear
1:53 AM 68.0 °F - 64.0 °F 87% 29.88 in 10.0 mi ESE 15.0 mph - N/A   Partly Cloudy
2:53 AM 68.0 °F - 64.9 °F 90% 29.86 in 10.0 mi East 8.1 mph - N/A   Mostly Cloudy
3:53 AM 68.0 °F - 64.9 °F 90% 29.85 in 10.0 mi ESE 6.9 mph - N/A   Scattered Clouds
4:53 AM 68.0 °F - 64.9 °F 90% 29.85 in 10.0 mi SE 11.5 mph - N/A   Partly Cloudy
5:53 AM 68.0 °F - 64.0 °F 87% 29.83 in 10.0 mi SE 5.8 mph - N/A   Partly Cloudy
6:53 AM 68.0 °F - 64.9 °F 90% 29.86 in 9.0 mi ESE 6.9 mph - N/A   Clear
7:53 AM 68.0 °F - 64.9 °F 90% 29.85 in 8.0 mi SSE 9.2 mph - N/A   Partly Cloudy
8:53 AM 70.0 °F - 66.0 °F 87% 29.85 in 8.0 mi SSE 5.8 mph - N/A   Clear
9:53 AM 72.0 °F - 66.0 °F 81% 29.85 in 10.0 mi South 4.6 mph - N/A   Clear
10:53 AM 75.9 °F - 66.9 °F 74% 29.85 in 10.0 mi SSE 10.4 mph - N/A   Clear
11:53 AM 79.0 °F - 66.0 °F 64% 29.85 in 10.0 mi SSE 5.8 mph - N/A   Clear
12:53 PM 82.9 °F 85.4 °F 66.9 °F 58% 29.83 in 10.0 mi Variable 3.5 mph - N/A   Partly Cloudy
1:53 PM 82.0 °F 84.1 °F 66.0 °F 58% 29.83 in 10.0 mi Calm Calm - N/A   Clear
2:53 PM 80.1 °F 82.7 °F 68.0 °F 67% 29.82 in 10.0 mi Variable 5.8 mph - N/A   Mostly Cloudy
3:53 PM 82.9 °F 85.8 °F 68.0 °F 60% 29.81 in 10.0 mi West 8.1 mph - N/A   Partly Cloudy
4:53 PM 82.0 °F 84.5 °F 66.9 °F 60% 29.80 in 10.0 mi West 5.8 mph - N/A   Clear
5:53 PM 82.0 °F 84.5 °F 66.9 °F 60% 29.78 in 10.0 mi NW 5.8 mph - N/A   Clear
6:53 PM 82.0 °F 84.5 °F 66.9 °F 60% 29.76 in 10.0 mi Calm Calm - N/A   Partly Cloudy
7:53 PM 82.0 °F 83.8 °F 64.9 °F 56% 29.75 in 10.0 mi South 5.8 mph - N/A   Clear
8:53 PM 79.0 °F - 66.0 °F 64% 29.76 in 10.0 mi South 4.6 mph - N/A   Clear
9:53 PM 78.1 °F - 66.0 °F 66% 29.75 in 10.0 mi South 5.8 mph - N/A   Clear
10:53 PM 75.9 °F - 66.9 °F 74% 29.76 in 10.0 mi South 3.5 mph - N/A   Partly Cloudy
11:53 PM 75.9 °F - 68.0 °F 76% 29.75 in 10.0 mi South 4.6 mph - N/A   Mostly Cloudy